Location: Bagnara
(41.0500°N, 14.7833°E)
Time: 14:31:15
(UTC+00:00)

USA 308 - Pass Details

Date: 20 June 2021
Orbit: 566 x 576 km, 54.0° (Epoch: 13 July)

Event Time Altitude Azimuth Distance (km) Brightness Sun altitude
Exits shadow 00:51:58 53° 254° (WSW) 701 3.0 -20.7°
Maximum altitude 00:52:52 74° 321° (NW) 593 2.9 -20.6°
Drops below altitude 10° 00:57:06 10° 47° (NE) 1,864 6.6 -20.2°
Sets 00:59:22 0° 49° (NE) 2,764 7.7 -20.0°
